Location: Bucquoy
(50.1391°N, 2.7097°E)
Time: 03:55:45
(UTC+00:00)

ARGOS Delta rocket - Pass Details

Date: 06 May 2021
Orbit: 636 x 836 km, 96.5° (Epoch: 22 June)

Event Time Altitude Azimuth Distance (km) Brightness Sun altitude
Rises 01:38:20 0° 16° (NNE) 2,964 8.6 -18.8°
Reaches altitude 10° 01:40:36 10° 22° (NNE) 2,062 7.5 -18.7°
Maximum altitude 01:44:56 47° 97° (E) 880 4.4 -18.3°
Enters shadow 01:47:38 22° 162° (SSE) 1,464 5.1 -18.1°
